Regional Weather Roundup
Issued by NWS

Home | Current Version | Previous Version | Text Only | Print | Product List | Glossary On
Versions: 1 2 3 4 5 6 7 8 9 10 11 12 13 14 15 16 17 18 19 20 21 22 23 24 25 26 27 28 29 30 31 32 33 34 35 36 37 38 39 40 41 42 43 44 45 46 47 48 49 50
000
ASUS42 KTBW 010617
RWRFL
FLORIDA REGIONAL WEATHER ROUNDUP
NATIONAL WEATHER SERVICE TAMPA BAY RUSKIN FL
200 AM EDT WED JUL 01 2015

NOTE: "FAIR" INDICATES FEW OR NO CLOUDS BELOW 12,000 FEET WITH NO
SIGNIFICANT WEATHER AND/OR OBSTRUCTIONS TO VISIBILITY.


FLZ001>010-012>015-112-114-115-010700-
PANHANDLE FLORIDA

CITY           SKY/WX    TMP DP  RH WIND       PRES   REMARKS
PENSACOLA      PTCLDY    79  73  82 SW6       30.08S
PENSACOLA NAS  PTCLDY    78  74  87 SW3       30.08S
MILTON NAS     PTCLDY    73  70  90 W3        30.08F
CRESTVIEW      PTCLDY    70  69  97 CALM      30.10S
DUKE FIELD     FAIR      71  69  94 S3        30.07F
MARY ESTHER    MOCLDY    81  74  80 W2        30.07S
TRI COUNTY     FAIR      68  67  96 CALM      30.09F
PANAMA CITY    FAIR      71  69  93 CALM      30.08S
TYNDALL AFB    PTCLDY    71  70  96 CALM      30.09S
APALACHICOLA   PTCLDY    82  73  74 SW6       30.10R

STATION/POSITION SKY/WX   TEMP    WIND        PRES    WAVE   SWELL
                          AIR SEA DIR/SP/G            HT/PER HT/PER
                          (F)     (DEG/KT/KT) (MB)    (FT/S) (FT/S)
30.1N   87.6W              83 84  260/ 17/ 21 1018.2R   1/ 3
29.2N   88.2W              84 85  250/ 17/ 21 1020.1S   2/ 3
28.8N   86.0W              83 83  220/  8/ 10 1020.1R   2/ 5   2/ 5
PANAMA CITY BEAC           81 80  260/ 10/ 11 1018.6R
CAPE SAN BLAS    NOT AVBL
TOWER C                    81     230/ 11/ 11 1019.4R
28.5N   84.5W              84 85  240/  8/ 10 1019.9R   2/ 5   2/ 5

$$
FLZ011-016>038-118-127-128-134-139-239-010700-
NORTH FLORIDA

CITY           SKY/WX    TMP DP  RH WIND       PRES   REMARKS
MARIANNA       PTCLDY    68  68 100 CALM      30.08F
TALLAHASSEE    CLEAR     69  67  93 S3        30.09R
PERRY            N/A     69  69 100 CALM      30.11R
CROSS CITY       N/A     71  68  90 CALM      30.09S
LAKE CITY      FAIR      68  66  94 SW3       30.10R
GAINESVILLE    PTCLDY    69  66  90 CALM      30.10S
MAYPORT NAS    PTCLDY    76  65  68 SW7       30.07S
JACKSONVILLE   MOCLDY    70  65  84 SW6       30.07S
JAX NAS        PTCLDY    76  64  66 SW8       30.09S
JAX CRAIG      PTCLDY    75  63  66 SW8       30.08R
JAX CECIL      CLEAR     66  64  94 MISG      30.09S
FERNANDINA BEA FAIR      75  64  69 SW8       30.05S
ST AUGUSTINE   MOCLDY    73  68  84 SW5       30.09S

STATION/POSITION SKY/WX   TEMP    WIND        PRES    WAVE   SWELL
                          AIR SEA DIR/SP/G            HT/PER HT/PER
                          (F)     (DEG/KT/KT) (MB)    (FT/S) (FT/S)
SHELL POINT                71      10/  3/  4   N/A
KEATON BEACH               83     260/ 11/ 12 1019.3R
CEDAR KEY                  80     360/  3/  3 1019.7R
FERNANDINA                 74 80  230/  7/ 10 1017.5S
30.7N   81.3W                 78                N/A     2/ 8
MAYPORT                    76 79  250/ 11/ 13 1018.5R
31.4N   80.9W              79 80  240/ 14/ 17 1017.1F   2/ 3   2/ 8
ST AUGUSTINE               73 74  200/  5/  5 1019.7R

$$
FLZ040-043>046-052-053-057-058-063-144-010700-
INTERIOR CENTRAL FLORIDA

CITY           SKY/WX    TMP DP  RH WIND       PRES   REMARKS
OCALA          MOCLDY    75  70  83 CALM      30.11S
THE VILLAGES     N/A    N/A N/A N/A CALM      30.02R
LEESBURG       CLOUDY    77  70  79 SW7       30.12
SANFORD        CLOUDY    80  74  81 S5        30.11R
ORLANDO EXEC   CLOUDY    81  75  82 S6        30.11
ORLANDO INTL   CLOUDY    79  74  84 S10       30.13
WINTER HAVEN   PTCLDY    81  75  82 S6        30.14
LAKELAND       CLEAR     77  72  83 CALM      30.13R
BARTOW         FAIR      75  75 100 SE3       30.13S
OKEECHOBEE     LGT RAIN  70  70 100 S3        30.15F

$$
FLZ041-047-054-059-064-141-147-010700-
EAST CENTRAL FLORIDA

CITY           SKY/WX    TMP DP  RH WIND       PRES   REMARKS
DAYTONA BEACH  CLOUDY    76  72  87 S3        30.11R
DELAND           N/A     79  72  78 SW5       30.12R
JFK SPACE CTR  CLOUDY    78  68  71 S7        30.10F
CAPE CANAVERAL CLOUDY    79  70  75 SW5       30.10F
PATRICK AFB    CLOUDY    79  71  75 SW13      30.12R
MELBOURNE      CLOUDY    76  68  76 S10       30.12F
VERO BEACH     CLOUDY    73  63  70 S9        30.14F
FT PIERCE      CLOUDY    72  66  81 S7        30.14
STUART         LGT RAIN  72  68  88 S6        30.16F

STATION/POSITION SKY/WX   TEMP    WIND        PRES    WAVE   SWELL
                          AIR SEA DIR/SP/G            HT/PER HT/PER
                          (F)     (DEG/KT/KT) (MB)    (FT/S) (FT/S)
28.5N   80.2W              78 81  180/ 19/ 21 1020.1R
28.9N   78.5W              80 84  180/ 12/ 16 1020.0F
TRIDENT PIER               79 81  190/  8/ 11 1020.4R
27.5N   80.2W                 77                N/A     2/ 3

$$
FLZ050-056-061-142-242-148-248-149-249-151-251-155-255-
160-260-010700-
WEST CENTRAL FLORIDA

CITY           SKY/WX    TMP DP  RH WIND       PRES   REMARKS
CRYSTAL RIVER  FAIR      73  70  88 CALM      30.10F
INVERNESS      FAIR     N/A N/A N/A CALM      30.11S
BROOKSVILLE    CLEAR     75  71  87 CALM      30.12
ZEPHYRHILLS    FAIR      72  72 100 CALM      30.13R
CLEARWATER     CLEAR     79  75  87 S7        30.10
TAMPA INTL     PTCLDY    82  74  76 SW6       30.11
TAMPA EXEC     CLEAR    N/A N/A N/A CALM      30.12S
PLANT CITY     CLEAR     77  75  94 CALM      30.14R
MACDILL AFB    CLEAR     81  77  87 SW3       30.10F
PETER O KNIGHT CLEAR     84  77  79 SW3       30.11S
ST PETERSBURG  CLEAR     84  75  74 W5        30.09
SARASOTA       PTCLDY    79  75  87 SE6       30.09
VENICE         FAIR      81  75  83 SE8       30.12F

STATION/POSITION SKY/WX   TEMP    WIND        PRES    WAVE   SWELL
                          AIR SEA DIR/SP/G            HT/PER HT/PER
                          (F)     (DEG/KT/KT) (MB)    (FT/S) (FT/S)
CEDAR KEY                  80     360/  3/  3 1019.7R
28.5N   84.5W              84 85  240/  8/ 10 1019.9R   2/ 5   2/ 5
27.3N   84.2W                 86                N/A     1/ 5
CLEARWATER BEACH           85 88  210/  6/  7 1019.7F
MIDDLE TAMPA BAY           85     200/  6/  8 1019.8F
VENICE                     83 89   50/  4/  5 1019.9F

$$
FLZ066-069-070-075>078-162-262-165-265-010700-
SOUTHWEST FLORIDA AND KEYS

CITY           SKY/WX    TMP DP  RH WIND       PRES   REMARKS
PUNTA GORDA    MOCLDY    78  75  90 E6        30.15
FT MYERS       CLOUDY    79  69  71 SE8       30.12
SOUTHWEST INTL CLOUDY    78  69  73 E12       30.14
NAPLES         CLOUDY    81  74  79 SE5       30.13
MARCO ISLAND   PTCLDY    81  70  69 CALM      30.14F
MARATHON       CLEAR     84  77  79 E3        30.13
KEY WEST NAS   PTCLDY    83  76  79 E7        30.13S
KEY WEST INTL  CLEAR     84  78  82 NE5       30.13  HX  95

STATION/POSITION SKY/WX   TEMP    WIND        PRES    WAVE   SWELL
                          AIR SEA DIR/SP/G            HT/PER HT/PER
                          (F)     (DEG/KT/KT) (MB)    (FT/S) (FT/S)
VENICE                     83 89   50/  4/  5 1019.9F
NAPLES                        90              1021.7F
26.0N   85.6W              84 85  110/  8/ 10 1019.7F   2/ 8   2/ 8
DRY TORTUGAS               85     120/  7/  8 1020.3R
NW FL BAY                  87     130/  7/  9 1020.9
SAND KEY                   84     100/  9/ 11 1020.2S
SOMBRERO KEY               84     110/  9/ 10 1021.2S
LONG KEY                   85 90  130/  7/  8 1021.4F
MOLASSES REEF              84 85   90/  6/  7 1021.0R

$$
FLZ067-068-071>074-168-172>174-010700-
SOUTHEAST FLORIDA

CITY           SKY/WX    TMP DP  RH WIND       PRES   REMARKS
W PALM BEACH   CLOUDY    72  69  90 NW3       30.17
FT LAUDER-EXEC MOCLDY    78  64  61 CALM      30.15
FT LAUDERDALE  MOCLDY    78  65  63 N3        30.16
POMPANO BEACH  CLOUDY    78  67  68 N3        30.16
PEMBROKE PINES MOCLDY    79  63  57 NE5       30.17
OPA LOCKA      MOCLDY    80  63  55 N9        30.17
MIAMI          MOCLDY    81  68  64 NE8G18    30.17
WEST KENDALL   MOCLDY    81  75  82 N8        30.16
HOMESTEAD      NOT AVBL

STATION/POSITION SKY/WX   TEMP    WIND        PRES    WAVE   SWELL
                          AIR SEA DIR/SP/G            HT/PER HT/PER
                          (F)     (DEG/KT/KT) (MB)    (FT/S) (FT/S)
PORT EVERGLADES            80      10/  6/ 15 1022.2R
VIRGINIA KEY               83 88   40/  2/  4 1021.1S
LAKE WORTH                 80 84   40/ 12/ 14 1021.5F
SETTLEMENT POINT           77     360/ 22/ 26 1022.9R

$$




USA.gov is the U.S. government's official web portal to all federal, state and local government web resources and services.